• In Czech Republic
  • List of Countries
  • For 7 days
  • Water Temperature
  • Satellite Maps
  • Weather Map
  • Weather Widgets
  • user-avatar
    Login

    Hourly Weather Gold Coast

    Today, 24 September, Sunday

    Time Temperature Precipitation Wind Pressure Humidity
    00:00 +21°C° 0 mm 6 mps 756 mmHg 73%
    01:00 +21°C° 0 mm 6 mps 756 mmHg 70%
    02:00 +20°C° 0 mm 6 mps 755 mmHg 69%
    03:00 +20°C° 0 mm 6 mps 755 mmHg 68%
    04:00 +20°C° 0 mm 5 mps 755 mmHg 65%
    05:00 +21°C° 0 mm 6 mps 755 mmHg 61%
    06:00 +21°C° 0 mm 6 mps 755 mmHg 58%
    07:00 +22°C° 0 mm 6 mps 756 mmHg 55%
    08:00 +27°C° 0 mm 7 mps 756 mmHg 46%
    09:00 +30°C° 0 mm 7 mps 756 mmHg 36%
    10:00 +32°C° 0 mm 7 mps 755 mmHg 30%
    11:00 +34°C° 0 mm 7 mps 755 mmHg 26%
    12:00 +36°C° 0 mm 7 mps 754 mmHg 22%
    13:00 +40°C° 0 mm 8 mps 754 mmHg 17%
    14:00 +39°C° 0 mm 8 mps 753 mmHg 21%
    15:00 +38°C° 0 mm 8 mps 753 mmHg 25%
    16:00 +37°C° 0 mm 9 mps 752 mmHg 28%
    17:00 +33°C° 0 mm 9 mps 753 mmHg 37%
    18:00 +31°C° 0 mm 9 mps 753 mmHg 46%
    19:00 +27°C° 0 mm 9 mps 753 mmHg 55%
    20:00 +26°C° 0 mm 8 mps 754 mmHg 55%
    21:00 +26°C° 0 mm 8 mps 754 mmHg 55%
    22:00 +24°C° 0 mm 8 mps 755 mmHg 55%
    23:00 +24°C° 0 mm 7 mps 754 mmHg 55%

    Tomorrow, 25 September, Monday

    Time Temperature Precipitation Wind Pressure Humidity
    00:00 +24°C° 0 mm 7 mps 754 mmHg 55%
    01:00 +23°C° 0 mm 6 mps 754 mmHg 56%
    02:00 +23°C° 0 mm 6 mps 754 mmHg 56%
    03:00 +22°C° 0 mm 6 mps 754 mmHg 57%
    04:00 +22°C° 0 mm 6 mps 754 mmHg 57%
    05:00 +23°C° 0 mm 6 mps 755 mmHg 55%
    06:00 +23°C° 0 mm 5 mps 755 mmHg 53%
    07:00 +25°C° 0 mm 5 mps 756 mmHg 51%
    08:00 +27°C° 0 mm 5 mps 756 mmHg 43%
    09:00 +30°C° 0 mm 6 mps 756 mmHg 35%
    10:00 +33°C° 0 mm 6 mps 756 mmHg 27%
    11:00 +35°C° 0 mm 6 mps 756 mmHg 23%
    12:00 +38°C° 0 mm 7 mps 755 mmHg 20%
    13:00 +40°C° 0 mm 7 mps 754 mmHg 16%
    14:00 +39°C° 0 mm 8 mps 754 mmHg 19%
    15:00 +38°C° 0 mm 8 mps 753 mmHg 21%
    16:00 +38°C° 0 mm 8 mps 753 mmHg 23%
    17:00 +34°C° 0 mm 8 mps 753 mmHg 30%
    18:00 +32°C° 0 mm 8 mps 754 mmHg 36%
    19:00 +29°C° 0 mm 8 mps 754 mmHg 43%
    20:00 +28°C° 0 mm 7 mps 754 mmHg 45%
    21:00 +28°C° 0 mm 6 mps 755 mmHg 47%
    22:00 +27°C° 0 mm 5 mps 755 mmHg 49%
    23:00 +26°C° 0 mm 5 mps 755 mmHg 50%

    Day after tomorrow, 26 September, Tuesday

    Time Temperature Precipitation Wind Pressure Humidity
    00:00 +26°C° 0 mm 5 mps 755 mmHg 50%
    01:00 +25°C° 0 mm 5 mps 755 mmHg 50%
    02:00 +25°C° 0 mm 5 mps 755 mmHg 50%
    03:00 +23°C° 0 mm 4 mps 755 mmHg 50%
    04:00 +24°C° 0 mm 3 mps 755 mmHg 50%
    05:00 +24°C° 0 mm 3 mps 755 mmHg 51%
    06:00 +25°C° 0 mm 3 mps 756 mmHg 52%
    07:00 +25°C° 0 mm 3 mps 757 mmHg 52%
    08:00 +26°C° 0 mm 2 mps 757 mmHg 50%
    09:00 +27°C° 0 mm 2 mps 757 mmHg 47%
    10:00 +28°C° 0 mm 2 mps 758 mmHg 45%
    11:00 +31°C° 0 mm 2 mps 757 mmHg 39%
    12:00 +34°C° 0 mm 3 mps 756 mmHg 33%
    13:00 +36°C° 0 mm 3 mps 755 mmHg 27%
    14:00 +34°C° 0 mm 4 mps 755 mmHg 32%
    15:00 +33°C° 0 mm 4 mps 755 mmHg 37%
    16:00 +32°C° 0 mm 4 mps 754 mmHg 43%
    17:00 +28°C° 0 mm 4 mps 755 mmHg 56%
    18:00 +26°C° 0 mm 4 mps 756 mmHg 70%
    19:00 +22°C° 0 mm 3 mps 756 mmHg 83%
    20:00 +22°C° 0 mm 3 mps 757 mmHg 84%
    21:00 +21°C° 0 mm 3 mps 757 mmHg 84%
    22:00 +21°C° 0 mm 3 mps 758 mmHg 85%
    23:00 +21°C° 0 mm 3 mps 758 mmHg 86%

    27 September, Wednesday

    Time Temperature Precipitation Wind Pressure Humidity
    00:00 +21°C° 0 mm 3 mps 757 mmHg 87%
    01:00 +21°C° 0 mm 3 mps 757 mmHg 88%
    02:00 +21°C° 0 mm 2 mps 757 mmHg 89%
    03:00 +21°C° 0 mm 2 mps 757 mmHg 91%
    04:00 +21°C° 0 mm 2 mps 757 mmHg 93%
    05:00 +22°C° 0 mm 1 mps 757 mmHg 90%
    06:00 +22°C° 0 mm 1 mps 758 mmHg 87%
    07:00 +23°C° 0 mm 1 mps 758 mmHg 85%
    08:00 +26°C° 0 mm 2 mps 758 mmHg 72%
    09:00 +29°C° 0 mm 3 mps 757 mmHg 59%
    10:00 +33°C° 0 mm 4 mps 757 mmHg 46%
    11:00 +35°C° 0 mm 5 mps 756 mmHg 39%
    12:00 +36°C° 0 mm 6 mps 756 mmHg 32%
    13:00 +39°C° 0 mm 7 mps 755 mmHg 26%
    14:00 +39°C° 0 mm 7 mps 754 mmHg 28%
    15:00 +38°C° 0 mm 7 mps 754 mmHg 30%
    16:00 +36°C° 0 mm 7 mps 753 mmHg 33%
    17:00 +33°C° 0 mm 7 mps 753 mmHg 44%
    18:00 +30°C° 0 mm 7 mps 754 mmHg 55%
    19:00 +27°C° 0 mm 7 mps 754 mmHg 67%
    20:00 +27°C° 0 mm 7 mps 754 mmHg 63%
    21:00 +27°C° 0 mm 7 mps 754 mmHg 60%
    22:00 +27°C° 0 mm 7 mps 755 mmHg 57%
    23:00 +27°C° 0 mm 7 mps 754 mmHg 54%

    28 September, Thursday

    Time Temperature Precipitation Wind Pressure Humidity
    00:00 +27°C° 0 mm 7 mps 754 mmHg 51%
    01:00 +27°C° 0 mm 6 mps 753 mmHg 48%
    02:00 +27°C° 0 mm 6 mps 753 mmHg 47%
    03:00 +26°C° 0 mm 6 mps 753 mmHg 46%
    04:00 +26°C° 0 mm 5 mps 754 mmHg 45%
    05:00 +27°C° 0 mm 5 mps 754 mmHg 44%
    06:00 +27°C° 0 mm 5 mps 755 mmHg 44%
    07:00 +28°C° 0 mm 5 mps 756 mmHg 44%
    08:00 +32°C° 0 mm 5 mps 756 mmHg 36%
    09:00 +35°C° 0 mm 5 mps 756 mmHg 28%
    10:00 +37°C° 0 mm 5 mps 756 mmHg 20%
    11:00 +39°C° 0 mm 6 mps 755 mmHg 19%
    12:00 +40°C° 0 mm 6 mps 755 mmHg 18%
    13:00 +41°C° 0 mm 7 mps 754 mmHg 16%
    14:00 +40°C° 0 mm 6 mps 754 mmHg 20%
    15:00 +38°C° 0 mm 6 mps 754 mmHg 24%
    16:00 +36°C° 0 mm 5 mps 754 mmHg 28%
    17:00 +33°C° 0 mm 5 mps 755 mmHg 38%
    18:00 +30°C° 0 mm 5 mps 755 mmHg 48%
    19:00 +27°C° 0 mm 5 mps 756 mmHg 59%
    20:00 +26°C° 0 mm 4 mps 756 mmHg 65%
    21:00 +25°C° 0 mm 4 mps 756 mmHg 71%
    22:00 +24°C° 0 mm 3 mps 757 mmHg 77%
    23:00 +22°C° 0 mm 3 mps 756 mmHg 81%

    29 September, Friday

    Time Temperature Precipitation Wind Pressure Humidity
    00:00 +22°C° 0 mm 3 mps 756 mmHg 85%
    01:00 +21°C° 0 mm 2 mps 756 mmHg 89%
    02:00 +21°C° 0 mm 2 mps 756 mmHg 89%
    03:00 +20°C° 0 mm 2 mps 757 mmHg 89%
    04:00 +20°C° 0 mm 3 mps 757 mmHg 89%
    05:00 +21°C° 0 mm 2 mps 757 mmHg 83%
    06:00 +23°C° 0 mm 2 mps 758 mmHg 77%
    07:00 +24°C° 0 mm 1 mps 758 mmHg 71%
    08:00 +27°C° 0 mm 2 mps 758 mmHg 62%
    09:00 +29°C° 0 mm 3 mps 758 mmHg 52%
    10:00 +33°C° 0 mm 4 mps 758 mmHg 42%
    11:00 +34°C° 0 mm 4 mps 757 mmHg 40%
    12:00 +34°C° 0 mm 5 mps 757 mmHg 37%
    13:00 +35°C° 0 mm 5 mps 756 mmHg 34%
    14:00 +35°C° 0 mm 6 mps 755 mmHg 34%
    15:00 +35°C° 0 mm 6 mps 755 mmHg 34%
    16:00 +35°C° 0 mm 7 mps 754 mmHg 33%
    17:00 +32°C° 0 mm 7 mps 755 mmHg 43%
    18:00 +29°C° 0 mm 6 mps 756 mmHg 53%
    19:00 +26°C° 0 mm 6 mps 756 mmHg 63%
    20:00 +26°C° 0 mm 5 mps 756 mmHg 63%
    21:00 +26°C° 0 mm 5 mps 757 mmHg 64%
    22:00 +25°C° 0 mm 4 mps 757 mmHg 64%
    23:00 +25°C° 0 mm 4 mps 757 mmHg 65%
    Show more